GW1859 Weather Reports


Display with metric or nautical units.
time (UTC)temp
F
wind
direction
speed
MPH
gust
MPH
rain 1hr
in
rain 24hr
in
rain mn
in
humidity
%
barometer
mb
20260904201144 101 25 0.0 3.0 0.00 0.00 0.00 37 1013.9
20260904200644 102 164 4.0 4.0 0.00 0.00 0.00 36 1013.8
20260904200139 102 359 1.0 3.0 0.00 0.00 0.00 35 1013.8
20260904195638 101 358 2.0 5.0 0.00 0.00 0.00 36 1013.8
20260904195132 100 15 0.0 3.0 0.00 0.00 0.00 37 1013.9
20260904194631 100 110 0.0 5.0 0.00 0.00 0.00 37 1013.8
20260904194127 100 306 0.0 4.0 0.00 0.00 0.00 38 1014.3
20260904193627 100 257 3.0 4.0 0.00 0.00 0.00 37 1014.1
20260904193123 100 300 0.0 2.0 0.00 0.00 0.00 37 1014.1
20260904192623 100 54 2.0 6.0 0.00 0.00 0.00 38 1014.1
20260904192119 100 120 0.0 7.0 0.00 0.00 0.00 38 1014.1
20260904191615 101 195 1.0 2.0 0.00 0.00 0.00 38 1014.0
20260904191112 100 17 0.0 3.0 0.00 0.00 0.00 39 1014.3
20260904190607 100 265 3.0 9.0 0.00 0.00 0.00 38 1014.2
20260904190103 100 139 2.0 3.0 0.00 0.00 0.00 38 1014.3
20260904185600 99 274 1.0 5.0 0.00 0.00 0.00 40 1014.3
20260904185054 99 19 0.0 5.0 0.00 0.00 0.00 40 1014.6
20260904184548 98 11 1.0 5.0 0.00 0.00 0.00 41 1014.5
20260904184043 98 118 2.0 4.0 0.00 0.00 0.00 41 1014.5
20260904183543 98 267 2.0 7.0 0.00 0.00 0.00 41 1014.7
20260904183039 98 54 3.0 7.0 0.00 0.00 0.00 41 1014.3
20260904182535 98 48 1.0 4.0 0.00 0.00 0.00 42 1014.8
20260904182034 97 48 2.0 4.0 0.00 0.00 0.00 43 1014.7
20260904181530 96 107 2.0 3.0 0.00 0.00 0.00 43 1014.6
20260904181031 96 217 4.0 6.0 0.00 0.00 0.00 43 1014.9
20260904180531 96 315 0.0 6.0 0.00 0.00 0.00 44 1014.9
20260904180026 96 252 2.0 8.0 0.00 0.00 0.00 44 1015.2
20260904175520 96 184 2.0 6.0 0.00 0.00 0.00 45 1014.9
20260904175019 96 278 1.0 5.0 0.00 0.00 0.00 44 1015.2
20260904174514 96 329 2.0 7.0 0.00 0.00 0.00 45 1015.0
20260904174011 96 160 0.0 6.0 0.00 0.00 0.00 45 1015.2
20260904173511 95 6 0.0 4.0 0.00 0.00 0.00 46 1015.0
20260904173006 95 298 0.0 12.0 0.00 0.00 0.00 47 1015.5
20260904172502 93 204 0.0 6.0 0.00 0.00 0.00 49 1015.3
20260904172000 94 228 10.0 11.0 0.00 0.00 0.00 47 1015.4
20260904171456 94 38 2.0 6.0 0.00 0.00 0.00 47 1015.4
20260904170952 93 50 0.0 7.0 0.00 0.00 0.00 49 1015.7
20260904170447 94 176 2.0 5.0 0.00 0.00 0.00 48 1015.3
20260904165943 94 97 2.0 5.0 0.00 0.00 0.00 48 1015.7
20260904165441 93 334 3.0 4.0 0.00 0.00 0.00 49 1015.5
20260904164941 93 171 2.0 4.0 0.00 0.00 0.00 49 1015.4
20260904164436 92 298 1.0 6.0 0.00 0.00 0.00 50 1015.7
20260904163933 92 0 2.0 6.0 0.00 0.00 0.00 51 1015.4
20260904163432 92 208 1.0 3.0 0.00 0.00 0.00 50 1015.6
20260904162932 92 45 0.0 4.0 0.00 0.00 0.00 51 1015.8
20260904162427 91 137 1.0 4.0 0.00 0.00 0.00 51 1015.4
20260904161922 91 289 1.0 4.0 0.00 0.00 0.00 52 1015.6
20260904161417 91 255 2.0 5.0 0.00 0.00 0.00 52 1015.8
20260904160914 91 182 2.0 6.0 0.00 0.00 0.00 52 1015.6
20260904160408 91 281 3.0 5.0 0.00 0.00 0.00 53 1015.7
20260904155904 89 8 1.0 3.0 0.00 0.00 0.00 55 1015.8
20260904155403 89 70 2.0 3.0 0.00 0.00 0.00 56 1015.4
20260904154903 88 268 1.0 3.0 0.00 0.00 0.00 56 1015.6
20260904154357 87 247 4.0 5.0 0.00 0.00 0.00 57 1015.9
20260904153852 87 247 3.0 6.0 0.00 0.00 0.00 57 1015.4
20260904153348 88 148 3.0 4.0 0.00 0.00 0.00 56 1015.7
20260904152844 87 102 3.0 3.0 0.00 0.00 0.00 57 1015.7
20260904152344 87 112 1.0 4.0 0.00 0.00 0.00 58 1015.8
20260904151838 86 272 2.0 5.0 0.00 0.00 0.00 59 1015.9
20260904151338 86 193 2.0 7.0 0.00 0.00 0.00 58 1015.8
20260904150834 85 336 2.0 3.0 0.00 0.00 0.00 60 1015.8
20260904150329 85 195 4.0 7.0 0.00 0.00 0.00 61 1015.8
20260904145826 84 218 3.0 8.0 0.00 0.00 0.00 62 1015.8
20260904145323 84 332 1.0 4.0 0.00 0.00 0.00 62 1015.8
20260904144819 84 181 3.0 5.0 0.00 0.00 0.00 62 1015.6
20260904144314 83 232 3.0 5.0 0.00 0.00 0.00 63 1015.8
20260904143809 83 274 2.0 5.0 0.00 0.00 0.00 63 1015.9
20260904143306 83 284 1.0 6.0 0.00 0.00 0.00 64 1015.9
20260904142802 82 243 2.0 5.0 0.00 0.00 0.00 65 1015.7
20260904142257 81 343 0.0 4.0 0.00 0.00 0.00 69 1016.0
20260904141758 80 97 1.0 3.0 0.00 0.00 0.00 70 1015.8
20260904141253 80 241 3.0 6.0 0.00 0.00 0.00 70 1015.9
20260904140749 80 220 2.0 5.0 0.00 0.00 0.00 71 1015.9
20260904140244 80 306 0.0 4.0 0.00 0.00 0.00 72 1015.8
20260904135743 79 244 0.0 4.0 0.00 0.00 0.00 74 1016.0
20260904135238 78 276 3.0 4.0 0.00 0.00 0.00 74 1015.9
20260904134734 78 0 0.0 3.0 0.00 0.00 0.00 75 1015.8
20260904134234 78 278 0.0 4.0 0.00 0.00 0.00 76 1015.7
20260904133728 78 351 0.0 2.0 0.00 0.00 0.00 77 1015.9
20260904133225 77 345 0.0 2.0 0.00 0.00 0.00 78 1015.7
20260904132724 76 52 2.0 2.0 0.00 0.00 0.00 78 1015.5
20260904132220 76 62 2.0 2.0 0.00 0.00 0.00 79 1015.7
20260904131719 76 297 0.0 2.0 0.00 0.00 0.00 80 1015.6
20260904131215 75 57 1.0 2.0 0.00 0.00 0.00 81 1015.4
20260904130715 75 30 0.0 3.0 0.00 0.00 0.00 82 1015.4
20260904130214 75 14 1.0 3.0 0.00 0.00 0.00 82 1015.5
20260904125710 74 62 2.0 2.0 0.00 0.00 0.00 83 1015.4
20260904125206 74 334 1.0 1.0 0.00 0.00 0.00 83 1015.4
20260904124700 74 147 0.0 2.0 0.00 0.00 0.00 83 1015.4
20260904124156 74 343 1.0 2.0 0.00 0.00 0.00 84 1015.6
20260904123656 73 177 1.0 2.0 0.00 0.00 0.00 84 1015.4
20260904123153 73 333 0.0 2.0 0.00 0.00 0.00 84 1015.4
20260904122652 73 326 0.0 2.0 0.00 0.00 0.00 85 1015.2
20260904122147 73 301 0.0 3.0 0.00 0.00 0.00 85 1015.1
20260904121642 73 71 0.0 2.0 0.00 0.00 0.00 85 1015.0
20260904121138 73 339 0.0 2.0 0.00 0.00 0.00 85 1014.9
20260904120634 73 16 0.0 2.0 0.00 0.00 0.00 84 1014.9
20260904120130 73 338 0.0 2.0 0.00 0.00 0.00 84 1014.9
20260904115630 73 345 2.0 2.0 0.00 0.00 0.00 84 1014.9
20260904115126 73 50 0.0 2.0 0.00 0.00 0.00 84 1014.9
20260904114626 73 25 0.0 2.0 0.00 0.00 0.00 83 1014.8
20260904114120 73 344 0.0 1.0 0.00 0.00 0.00 84 1014.8
20260904113620 73 25 0.0 1.0 0.00 0.00 0.00 84 1014.7
20260904113119 73 333 0.0 1.0 0.00 0.00 0.00 83 1014.9
20260904112615 74 20 1.0 2.0 0.00 0.00 0.00 83 1014.9
20260904112111 74 349 0.0 1.0 0.00 0.00 0.00 83 1014.8
20260904111606 74 336 0.0 1.0 0.00 0.00 0.00 83 1015.0
20260904111102 74 34 0.0 1.0 0.00 0.00 0.00 83 1014.7
20260904110556 74 27 1.0 2.0 0.00 0.00 0.00 83 1014.9
20260904110051 74 5 2.0 2.0 0.00 0.00 0.00 82 1014.8
20260904105551 74 25 0.0 2.0 0.00 0.00 0.00 83 1014.8
20260904105046 74 324 0.0 1.0 0.00 0.00 0.00 82 1014.8
20260904104541 74 35 0.0 1.0 0.00 0.00 0.00 82 1014.9
20260904104037 74 22 0.0 1.0 0.00 0.00 0.00 81 1014.8
20260904103533 74 39 1.0 1.0 0.00 0.00 0.00 81 1015.0
20260904103029 74 5 1.0 2.0 0.00 0.00 0.00 81 1014.7
20260904102524 74 124 0.0 2.0 0.00 0.00 0.00 81 1014.9
20260904102019 74 329 0.0 2.0 0.00 0.00 0.00 80 1014.7
20260904101516 75 299 0.0 1.0 0.00 0.00 0.00 80 1014.8
20260904101011 75 283 0.0 1.0 0.00 0.00 0.00 80 1015.0
20260904100507 75 268 1.0 2.0 0.00 0.00 0.00 80 1015.0
20260904100008 75 294 1.0 2.0 0.00 0.00 0.00 79 1014.8
20260904095502 75 345 1.0 2.0 0.00 0.00 0.00 79 1014.7
20260904094957 75 297 0.0 2.0 0.00 0.00 0.00 79 1014.6
20260904094452 75 350 0.0 1.0 0.00 0.00 0.00 78 1014.7
20260904093948 76 2 0.0 2.0 0.00 0.00 0.00 78 1014.7
20260904093444 76 3 1.0 2.0 0.00 0.00 0.00 78 1014.5
20260904092938 76 289 2.0 2.0 0.00 0.00 0.00 78 1014.3
20260904092435 76 44 0.0 2.0 0.00 0.00 0.00 77 1014.2
20260904091931 76 52 1.0 2.0 0.00 0.00 0.00 77 1014.3
20260904091427 76 286 0.0 3.0 0.00 0.00 0.00 76 1014.3
20260904090926 76 312 0.0 2.0 0.00 0.00 0.00 76 1014.2
20260904090422 76 342 0.0 2.0 0.00 0.00 0.00 76 1014.5
20260904085917 77 34 2.0 2.0 0.00 0.00 0.00 75 1014.5
20260904085413 77 27 0.0 4.0 0.00 0.00 0.00 75 1014.3
20260904084907 77 235 0.0 2.0 0.00 0.00 0.00 75 1014.5
20260904084403 77 274 1.0 2.0 0.00 0.00 0.00 75 1014.1
20260904083858 77 204 2.0 2.0 0.00 0.00 0.00 74 1014.5
20260904083355 77 232 2.0 3.0 0.00 0.00 0.00 74 1014.5
20260904082851 77 341 1.0 3.0 0.00 0.00 0.00 74 1014.3
20260904082345 77 44 1.0 2.0 0.00 0.00 0.00 74 1014.5
20260904081840 78 137 2.0 2.0 0.00 0.00 0.00 73 1014.2
20260904081336 78 1 0.0 1.0 0.00 0.00 0.00 73 1014.3
20260904080832 78 354 0.0 2.0 0.00 0.00 0.00 72 1014.5
20260904080327 78 334 0.0 2.0 0.00 0.00 0.00 72 1014.5
20260904075823 78 330 0.0 2.0 0.00 0.00 0.00 72 1014.6
20260904075324 78 18 2.0 2.0 0.00 0.00 0.00 71 1014.6
20260904074822 79 344 0.0 2.0 0.00 0.00 0.00 71 1014.7
20260904074317 79 288 1.0 3.0 0.00 0.00 0.00 71 1014.8
20260904073813 79 273 0.0 1.0 0.00 0.00 0.00 70 1014.7
20260904073308 79 0 0.0 2.0 0.00 0.00 0.00 70 1014.5
20260904072805 79 299 0.0 2.0 0.00 0.00 0.00 70 1014.5
20260904072306 79 21 0.0 3.0 0.00 0.00 0.00 70 1014.6
20260904071759 79 32 0.0 2.0 0.00 0.00 0.00 69 1014.8
20260904071254 79 327 0.0 3.0 0.00 0.00 0.00 69 1014.6
20260904070749 80 351 1.0 2.0 0.00 0.00 0.00 69 1014.5
20260904070249 80 336 2.0 2.0 0.00 0.00 0.00 69 1014.5
20260904065749 80 359 1.0 2.0 0.00 0.00 0.00 68 1014.7
20260904065245 80 150 0.0 2.0 0.00 0.00 0.00 68 1014.6
20260904064745 80 53 2.0 2.0 0.00 0.00 0.00 68 1014.5
20260904064240 80 35 0.0 3.0 0.00 0.00 0.00 68 1014.6
20260904063737 80 341 1.0 2.0 0.00 0.00 0.00 67 1014.5
20260904063232 81 74 1.0 4.0 0.00 0.00 0.00 67 1014.7
20260904062728 81 320 0.0 5.0 0.00 0.00 0.00 67 1014.5
20260904062224 81 338 1.0 5.0 0.00 0.00 0.00 67 1014.6
20260904061719 81 203 1.0 2.0 0.00 0.00 0.00 66 1014.3
20260904061215 81 202 2.0 4.0 0.00 0.00 0.00 66 1014.3
20260904060712 81 43 0.0 3.0 0.00 0.00 0.00 66 1014.8
20260904060207 81 242 2.0 4.0 0.00 0.00 0.00 65 1014.6
20260904055702 82 81 4.0 4.0 0.00 0.00 0.00 65 1014.6
20260904055157 82 237 0.0 3.0 0.00 0.00 0.00 65 1014.5
20260904054653 82 19 3.0 3.0 0.00 0.00 0.00 64 1014.5
20260904054149 82 46 1.0 3.0 0.00 0.00 0.00 64 1014.2
20260904053644 82 30 0.0 4.0 0.00 0.00 0.00 64 1014.3
20260904053144 82 335 0.0 2.0 0.00 0.00 0.00 63 1014.1
20260904052641 82 178 1.0 2.0 0.00 0.00 0.00 63 1014.1
20260904052136 82 191 0.0 4.0 0.00 0.00 0.00 63 1014.3
20260904051632 82 34 1.0 2.0 0.00 0.00 0.00 62 1014.1
20260904051127 82 251 1.0 2.0 0.00 0.00 0.00 62 1014.1
20260904050622 83 65 1.0 4.0 0.00 0.00 0.00 62 1014.1
20260904050119 83 174 0.0 3.0 0.00 0.00 0.00 61 1014.1
20260904045613 83 65 2.0 4.0 0.00 0.00 0.00 61 1014.1
20260904045108 83 315 0.0 6.0 0.00 0.00 0.00 61 1014.1
20260904044603 83 50 0.0 3.0 0.00 0.00 0.00 61 1013.8
20260904044100 83 30 0.0 6.0 0.00 0.00 0.00 61 1013.8
20260904043556 83 299 4.0 4.0 0.00 0.00 0.00 61 1014.0
20260904043051 83 236 0.0 3.0 0.00 0.00 0.00 61 1013.8
20260904042548 83 343 2.0 3.0 0.00 0.00 0.00 61 1014.0
20260904042043 83 118 2.0 4.0 0.00 0.00 0.00 61 1013.9
20260904041538 83 119 1.0 3.0 0.00 0.00 0.00 61 1014.0
20260904041034 84 30 0.0 2.0 0.00 0.00 0.00 60 1013.9
20260904040534 84 11 0.0 2.0 0.00 0.00 0.00 60 1013.8
20260904040031 84 97 0.0 2.0 0.00 0.00 0.00 60 1013.9
20260904035531 84 34 0.0 2.0 0.00 0.00 0.00 59 1013.7
20260904035031 84 347 1.0 2.0 0.00 0.00 0.00 59 1013.9
20260904034525 85 326 0.0 3.0 0.00 0.00 0.00 59 1013.8
20260904034021 85 44 0.0 3.0 0.00 0.00 0.00 59 1013.8
20260904033517 85 44 0.0 2.0 0.00 0.00 0.00 58 1013.8
20260904033014 85 99 0.0 2.0 0.00 0.00 0.00 58 1013.8
20260904032509 85 69 1.0 2.0 0.00 0.00 0.00 58 1013.6
20260904032008 85 30 0.0 2.0 0.00 0.00 0.00 57 1013.7
20260904031503 86 123 1.0 3.0 0.00 0.00 0.00 57 1013.6
20260904030959 86 358 0.0 2.0 0.00 0.00 0.00 57 1013.4
20260904030454 86 99 1.0 6.0 0.00 0.00 0.00 56 1013.7
20260904025949 86 40 3.0 3.0 0.00 0.00 0.00 56 1013.3
20260904025446 86 334 2.0 5.0 0.00 0.00 0.00 56 1013.6
20260904024945 87 61 3.0 4.0 0.00 0.00 0.00 55 1013.5
20260904024441 87 56 2.0 4.0 0.00 0.00 0.00 55 1013.3
20260904023936 87 144 3.0 4.0 0.00 0.00 0.00 54 1013.3
20260904023432 87 129 0.0 3.0 0.00 0.00 0.00 54 1013.2
20260904022932 87 33 2.0 5.0 0.00 0.00 0.00 54 1013.2
20260904022429 88 39 2.0 3.0 0.00 0.00 0.00 53 1013.2
20260904021925 88 123 3.0 3.0 0.00 0.00 0.00 53 1012.9
20260904021420 88 31 1.0 4.0 0.00 0.00 0.00 53 1013.0
20260904020915 88 51 2.0 4.0 0.00 0.00 0.00 52 1013.0
20260904020410 88 52 0.0 2.0 0.00 0.00 0.00 52 1013.0
20260904015908 89 48 0.0 3.0 0.00 0.00 0.00 51 1012.9
20260904015405 88 173 1.0 4.0 0.00 0.00 0.00 50 1012.7
20260904014903 89 349 2.0 2.0 0.00 0.00 0.00 49 1012.6
20260904014358 89 349 2.0 4.0 0.00 0.00 0.00 49 1012.4
20260904013854 89 236 0.0 2.0 0.00 0.00 0.00 48 1012.8
20260904013350 89 1 2.0 4.0 0.00 0.00 0.00 47 1012.4
20260904012846 90 122 0.0 2.0 0.00 0.00 0.00 47 1012.4
20260904012346 90 355 1.0 3.0 0.00 0.00 0.00 46 1012.4
20260904011845 90 76 0.0 4.0 0.00 0.00 0.00 45 1012.1
20260904011340 91 18 2.0 2.0 0.00 0.00 0.00 45 1012.2
20260904010835 91 76 2.0 3.0 0.00 0.00 0.00 44 1012.1
20260904010333 91 71 1.0 4.0 0.00 0.00 0.00 43 1012.0
20260904005832 92 102 2.0 3.0 0.00 0.00 0.00 43 1012.2
20260904005328 92 111 1.0 3.0 0.00 0.00 0.00 42 1011.8
20260904004823 92 96 0.0 3.0 0.00 0.00 0.00 42 1011.7
20260904004319 93 201 2.0 4.0 0.00 0.00 0.00 41 1012.0
20260904003814 93 22 1.0 4.0 0.00 0.00 0.00 41 1011.8
20260904003310 94 120 4.0 4.0 0.00 0.00 0.00 40 1011.6
20260904002805 94 34 2.0 3.0 0.00 0.00 0.00 40 1011.7
20260904002302 95 18 2.0 4.0 0.00 0.00 0.00 39 1011.8
20260904001800 95 49 1.0 4.0 0.00 0.00 0.00 38 1011.5
20260904001256 96 139 1.0 4.0 0.00 0.00 0.00 38 1011.5
20260904000751 96 327 1.0 4.0 0.00 0.00 0.00 38 1011.6
20260904000245 97 344 2.0 4.0 0.00 0.00 0.00 37 1011.7
20260903235744 98 87 0.0 4.0 0.00 0.00 0.00 36 1011.7
20260903235241 98 63 2.0 3.0 0.00 0.00 0.00 36 1011.6
20260903234740 99 63 2.0 3.0 0.00 0.00 0.00 35 1011.4
20260903234237 99 51 2.0 4.0 0.00 0.00 0.00 35 1011.3
20260903233733 99 24 1.0 3.0 0.00 0.00 0.00 35 1011.5
20260903233228 99 89 2.0 6.0 0.00 0.00 0.00 35 1011.5
20260903232727 100 96 1.0 6.0 0.00 0.00 0.00 34 1011.7
20260903232223 101 337 0.0 5.0 0.00 0.00 0.00 33 1011.6
20260903231722 101 125 0.0 4.0 0.00 0.00 0.00 33 1011.3
20260903231218 102 353 0.0 4.0 0.00 0.00 0.00 31 1011.3
20260903230714 102 27 2.0 4.0 0.00 0.00 0.00 30 1011.4
20260903230214 102 347 0.0 2.0 0.00 0.00 0.00 30 1011.5
20260903225710 102 49 3.0 3.0 0.00 0.00 0.00 29 1011.3
20260903225206 102 225 1.0 3.0 0.00 0.00 0.00 30 1011.3
20260903224702 101 32 0.0 4.0 0.00 0.00 0.00 30 1011.3
20260903224158 102 80 2.0 5.0 0.00 0.00 0.00 30 1011.3
20260903223653 102 312 2.0 6.0 0.00 0.00 0.00 30 1011.3
20260903223151 103 320 5.0 6.0 0.00 0.00 0.00 29 1011.4
20260903222651 103 290 0.0 6.0 0.00 0.00 0.00 29 1011.3
20260903222150 103 322 0.0 3.0 0.00 0.00 0.00 30 1011.4
20260903221646 102 333 3.0 5.0 0.00 0.00 0.00 30 1011.3
20260903221144 102 75 2.0 5.0 0.00 0.00 0.00 29 1011.3
20260903220643 102 60 2.0 6.0 0.00 0.00 0.00 30 1011.5
20260903220138 103 115 2.0 4.0 0.00 0.00 0.00 30 1011.2
20260903215637 103 114 1.0 3.0 0.00 0.00 0.00 30 1011.4
20260903215132 103 282 3.0 4.0 0.00 0.00 0.00 30 1011.3
20260903214630 102 15 1.0 2.0 0.00 0.00 0.00 31 1011.4
20260903214126 102 67 2.0 5.0 0.00 0.00 0.00 31 1011.7
20260903213621 104 115 1.0 4.0 0.00 0.00 0.00 30 1011.6
20260903213117 103 308 3.0 3.0 0.00 0.00 0.00 30 1011.6
20260903212612 103 2 2.0 4.0 0.00 0.00 0.00 31 1011.6
20260903212108 103 180 0.0 3.0 0.00 0.00 0.00 31 1011.7
20260903211602 103 38 2.0 5.0 0.00 0.00 0.00 31 1011.6
20260903211059 103 96 2.0 5.0 0.00 0.00 0.00 32 1011.8
20260903210554 102 173 2.0 3.0 0.00 0.00 0.00 32 1011.8
20260903210050 102 212 3.0 4.0 0.00 0.00 0.00 32 1011.7
20260903205548 102 263 0.0 3.0 0.00 0.00 0.00 33 1012.0
20260903205043 102 330 0.0 6.0 0.00 0.00 0.00 32 1011.7
20260903204539 102 121 2.0 4.0 0.00 0.00 0.00 33 1012.0
20260903204035 101 157 5.0 5.0 0.00 0.00 0.00 33 1012.0
20260903203530 102 271 1.0 3.0 0.00 0.00 0.00 33 1012.3
20260903203030 102 138 1.0 6.0 0.00 0.00 0.00 33 1012.2
20260903202526 101 2 2.0 4.0 0.00 0.00 0.00 34 1012.3
20260903202021 103 31 1.0 6.0 0.00 0.00 0.00 33 1012.3
20260903201516 102 78 2.0 6.0 0.00 0.00 0.00 34 1012.4